Location: Unspecified
(45.8530°N, 0.0000°E)
Time: 11:24:17
(UTC+00:00)

NOAA 11 DEB - Visible Passes

Search period start: 04 April 2026 00:00
Search period end: 14 April 2026 00:00
Orbit: 780 x 799 km, 98.5° (Epoch: 29 March)

Date Brightness Start Highest point End Pass type
(mag) Time Alt. Az. Time Alt. Az. Time Alt. Az.
4 Apr ? 03:22:25 10° NE 03:26:41 25° E 03:30:55 10° SSE visible
4 Apr ? 05:01:20 10° N 05:06:22 48° WNW 05:11:24 10° SW visible
5 Apr ? 02:54:02 10° ENE 02:56:35 13° E 02:59:06 10° ESE visible
5 Apr ? 04:31:26 10° NNE 04:36:43 85° WNW 04:41:58 10° SSW visible
6 Apr ? 04:01:46 10° NNE 04:06:55 54° E 04:12:03 10° S visible
7 Apr ? 03:32:24 10° NE 03:37:00 30° E 03:41:34 10° SSE visible
8 Apr ? 03:03:36 10° NE 03:06:56 17° E 03:10:14 10° SE visible
8 Apr ? 04:41:40 10° N 04:46:55 70° WNW 04:52:08 10° SSW visible
9 Apr ? 04:11:55 10° NNE 04:17:10 66° ESE 04:22:22 10° S visible
10 Apr ? 03:42:25 10° NNE 03:47:16 36° E 03:52:06 10° SSE visible
11 Apr ? 03:13:22 10° NE 03:17:15 21° E 03:21:07 10° SE visible
11 Apr ? 04:51:56 10° N 04:57:05 58° WNW 05:02:13 10° SSW visible
12 Apr ? 02:45:45 10° ENE 02:47:05 11° E 02:48:25 10° E visible
12 Apr ? 04:22:05 10° NNE 04:27:22 81° ESE 04:32:37 10° SSW visible
13 Apr ? 03:52:28 10° NNE 03:57:31 45° E 04:02:31 10° S visible
